"Sample Date","Sample Time","Sample Value","Units","Flow Rate","Number Channels","Micron Size 0","Counts/Channel 0","Micron Size 1","Counts/Channel 1","Micron Size 2","Counts/Channel 2","Micron Size 3","Counts/Channel 3","Micron Size 4","Counts/Channel 4","Micron Size 5","Counts/Channel 5","Micron Size 6","Counts/Channel 6","Micron Size 7","Counts/Channel 7","Micron Size 8","Counts/Channel 8","Micron Size 9","Counts/Channel 9","Micron Size 10","Counts/Channel 10","Micron Size 11","Counts/Channel 11","Micron Size 12","Counts/Channel 12","Micron Size 13","Counts/Channel 13","Micron Size 14","Counts/Channel 14","Micron Size 15","Counts/Channel 15","Micron Size 16","Counts/Channel 16","Micron Size 17","Counts/Channel 17","Micron Size 18","Counts/Channel 18","Micron Size 19","Counts/Channel 19","Micron Size 20","Counts/Channel 20","Micron Size 21","Counts/Channel 21","Micron Size 22","Counts/Channel 22","Micron Size 23","Counts/Channel 23","Micron Size 24","Counts/Channel 24","Micron Size 25","Counts/Channel 25","Micron Size 26","Counts/Channel 26","Micron Size 27","Counts/Channel 27","Micron Size 28","Counts/Channel 28","Micron Size 29","Counts/Channel 29","Micron Size 30","Counts/Channel 30","Micron Size 31","Counts/Channel 31"
"05/09/08","19:00:05",2513.000,"cc",28329.930,6,0.100,1924.000,0.200,508.000,0.300,69.000,0.500,9.000,1.000,3.000,5.000,0
"05/09/08","19:00:11",2735.000,"cc",28307.154,6,0.100,2034.000,0.200,618.000,0.300,72.000,0.500,9.000,1.000,2.000,5.000,0
"05/09/08","19:00:17",2736.000,"cc",28316.582,6,0.100,2057.000,0.200,575.000,0.300,84.000,0.500,18.000,1.000,2.000,5.000,0
"05/09/08","19:00:23",2599.000,"cc",28304.053,6,0.100,1977.000,0.200,532.000,0.300,66.000,0.500,23.000,1.000,1.000,5.000,0
"05/09/08","19:00:29",2696.000,"cc",28311.293,6,0.100,2013.000,0.200,584.000,0.300,80.000,0.500,19.000,1.000,0,5.000,0
"05/09/08","19:00:35",2595.000,"cc",28288.582,6,0.100,1985.000,0.200,510.000,0.300,84.000,0.500,16.000,1.000,0,5.000,0
"05/09/08","19:00:41",2632.000,"cc",28337.777,6,0.100,2010.000,0.200,527.000,0.300,77.000,0.500,16.000,1.000,2.000,5.000,0
"05/09/08","19:00:47",2558.000,"cc",28374.570,6,0.100,1921.000,0.200,542.000,0.300,77.000,0.500,16.000,1.000,2.000,5.000,0
"05/09/08","19:00:53",2798.000,"cc",28299.629,6,0.100,2134.000,0.200,577.000,0.300,68.000,0.500,17.000,1.000,2.000,5.000,0
"05/09/08","19:00:59",2593.000,"cc",28235.537,6,0.100,1971.000,0.200,527.000,0.300,76.000,0.500,19.000,1.000,0,5.000,0
"05/09/08","19:01:05",2583.000,"cc",28277.094,6,0.100,1979.000,0.200,516.000,0.300,71.000,0.500,17.000,1.000,0,5.000,0
"05/09/08","19:01:11",2795.000,"cc",28393.707,6,0.100,2066.000,0.200,626.000,0.300,86.000,0.500,17.000,1.000,0,5.000,0
"05/09/08","19:01:17",2704.000,"cc",28336.385,6,0.100,2064.000,0.200,534.000,0.300,90.000,0.500,16.000,1.000,0,5.000,0
"05/09/08","19:01:23",2739.000,"cc",28320.408,6,0.100,2107.000,0.200,515.000,0.300,89.000,0.500,27.000,1.000,1.000,5.000,0
"05/09/08","19:01:29",2589.000,"cc",28221.270,6,0.100,1963.000,0.200,516.000,0.300,86.000,0.500,22.000,1.000,2.000,5.000,0
"05/09/08","19:01:35",2680.000,"cc",28317.996,6,0.100,2026.000,0.200,560.000,0.300,79.000,0.500,15.000,1.000,0,5.000,0
"05/09/08","19:01:41",2767.000,"cc",28318.033,6,0.100,2103.000,0.200,556.000,0.300,87.000,0.500,20.000,1.000,1.000,5.000,0
"05/09/08","19:01:47",2708.000,"cc",28357.451,6,0.100,2035.000,0.200,586.000,0.300,82.000,0.500,5.000,1.000,0,5.000,0
"05/09/08","19:01:53",2628.000,"cc",28339.848,6,0.100,2013.000,0.200,519.000,0.300,84.000,0.500,12.000,1.000,0,5.000,0
"05/09/08","19:01:59",2683.000,"cc",28300.348,6,0.100,2031.000,0.200,543.000,0.300,84.000,0.500,25.000,1.000,0,5.000,0
"05/09/08","19:02:05",2641.000,"cc",28354.238,6,0.100,2026.000,0.200,537.000,0.300,62.000,0.500,15.000,1.000,1.000,5.000,0
"05/09/08","19:02:11",2614.000,"cc",28380.172,6,0.100,1987.000,0.200,543.000,0.300,68.000,0.500,14.000,1.000,2.000,5.000,0
"05/09/08","19:02:17",2937.000,"cc",28342.592,6,0.100,2259.000,0.200,605.000,0.300,56.000,0.500,15.000,1.000,2.000,5.000,0
"05/09/08","19:02:23",2849.000,"cc",28285.252,6,0.100,2162.000,0.200,574.000,0.300,86.000,0.500,26.000,1.000,1.000,5.000,0
"05/09/08","19:02:29",2783.000,"cc",28282.445,6,0.100,2120.000,0.200,565.000,0.300,78.000,0.500,20.000,1.000,0,5.000,0
"05/09/08","19:02:35",2920.000,"cc",28332.549,6,0.100,2258.000,0.200,593.000,0.300,53.000,0.500,13.000,1.000,3.000,5.000,0
"05/09/08","19:02:41",2686.000,"cc",28317.957,6,0.100,2062.000,0.200,529.000,0.300,75.000,0.500,18.000,1.000,2.000,5.000,0
"05/09/08","19:02:47",2924.000,"cc",28268.660,6,0.100,2275.000,0.200,557.000,0.300,69.000,0.500,22.000,1.000,1.000,5.000,0
"05/09/08","19:02:53",2744.000,"cc",28341.371,6,0.100,2116.000,0.200,525.000,0.300,77.000,0.500,23.000,1.000,3.000,5.000,0
"05/09/08","19:02:59",2648.000,"cc",28270.719,6,0.100,2044.000,0.200,513.000,0.300,75.000,0.500,16.000,1.000,0,5.000,0
"05/09/08","19:03:05",2610.000,"cc",28249.918,6,0.100,2009.000,0.200,497.000,0.300,83.000,0.500,21.000,1.000,0,5.000,0
"05/09/08","19:03:11",2709.000,"cc",28424.754,6,0.100,2062.000,0.200,539.000,0.300,86.000,0.500,19.000,1.000,3.000,5.000,0
"05/09/08","19:03:17",2631.000,"cc",28329.871,6,0.100,2029.000,0.200,516.000,0.300,64.000,0.500,22.000,1.000,0,5.000,0
"05/09/08","19:03:23",2731.000,"cc",28269.082,6,0.100,2112.000,0.200,535.000,0.300,76.000,0.500,8.000,1.000,0,5.000,0
"05/09/08","19:03:29",2622.000,"cc",28237.029,6,0.100,1998.000,0.200,540.000,0.300,68.000,0.500,16.000,1.000,0,5.000,0
"05/09/08","19:03:35",2866.000,"cc",28321.523,6,0.100,2213.000,0.200,568.000,0.300,70.000,0.500,12.000,1.000,3.000,5.000,0
"05/09/08","19:03:41",2646.000,"cc",28299.629,6,0.100,2041.000,0.200,512.000,0.300,77.000,0.500,14.000,1.000,2.000,5.000,0
"05/09/08","19:03:47",2743.000,"cc",28343.484,6,0.100,2125.000,0.200,524.000,0.300,76.000,0.500,15.000,1.000,3.000,5.000,0
"05/09/08","19:03:53",2715.000,"cc",28328.748,6,0.100,2125.000,0.200,512.000,0.300,62.000,0.500,16.000,1.000,0,5.000,0
"05/09/08","19:03:59",2762.000,"cc",28313.070,6,0.100,2121.000,0.200,556.000,0.300,69.000,0.500,16.000,1.000,0,5.000,0
"05/09/08","19:04:05",2621.000,"cc",28345.961,6,0.100,2013.000,0.200,530.000,0.300,58.000,0.500,20.000,1.000,0,5.000,0
"05/09/08","19:04:11",2601.000,"cc",28298.660,6,0.100,2030.000,0.200,484.000,0.300,76.000,0.500,10.000,1.000,1.000,5.000,0
"05/09/08","19:04:17",2601.000,"cc",28263.981,6,0.100,1977.000,0.200,524.000,0.300,81.000,0.500,18.000,1.000,1.000,5.000,0
"05/09/08","19:04:23",2567.000,"cc",28308.559,6,0.100,1972.000,0.200,516.000,0.300,62.000,0.500,14.000,1.000,3.000,5.000,0
"05/09/08","19:04:29",2599.000,"cc",28366.479,6,0.100,2016.000,0.200,492.000,0.300,79.000,0.500,10.000,1.000,2.000,5.000,0
"05/09/08","19:04:35",2732.000,"cc",28368.268,6,0.100,2099.000,0.200,547.000,0.300,68.000,0.500,18.000,1.000,0,5.000,0
"05/09/08","19:04:41",2578.000,"cc",28359.527,6,0.100,2004.000,0.200,493.000,0.300,60.000,0.500,21.000,1.000,0,5.000,0
"05/09/08","19:04:47",2906.000,"cc",28282.262,6,0.100,2214.000,0.200,594.000,0.300,79.000,0.500,18.000,1.000,1.000,5.000,0
"05/09/08","19:04:53",2848.000,"cc",28297.438,6,0.100,2213.000,0.200,543.000,0.300,74.000,0.500,16.000,1.000,2.000,5.000,0
"05/09/08","19:04:59",2892.000,"cc",28290.977,6,0.100,2240.000,0.200,566.000,0.300,64.000,0.500,22.000,1.000,0,5.000,0
"05/09/08","19:05:05",3051.000,"cc",28421.248,6,0.100,2367.000,0.200,589.000,0.300,78.000,0.500,15.000,1.000,2.000,5.000,0
"05/09/08","19:05:11",2733.000,"cc",28351.744,6,0.100,2099.000,0.200,550.000,0.300,68.000,0.500,14.000,1.000,2.000,5.000,0
"05/09/08","19:05:17",2739.000,"cc",28317.865,6,0.100,2132.000,0.200,518.000,0.300,71.000,0.500,18.000,1.000,0,5.000,0
"05/09/08","19:05:23",2687.000,"cc",28231.152,6,0.100,2103.000,0.200,496.000,0.300,65.000,0.500,22.000,1.000,1.000,5.000,0
"05/09/08","19:05:29",2714.000,"cc",28362.760,6,0.100,2104.000,0.200,516.000,0.300,77.000,0.500,14.000,1.000,3.000,5.000,0
"05/09/08","19:05:35",2850.000,"cc",28343.582,6,0.100,2195.000,0.200,550.000,0.300,90.000,0.500,14.000,1.000,1.000,5.000,0
"05/09/08","19:05:41",2785.000,"cc",28306.402,6,0.100,2127.000,0.200,569.000,0.300,68.000,0.500,19.000,1.000,2.000,5.000,0
"05/09/08","19:05:47",3085.000,"cc",28281.875,6,0.100,2429.000,0.200,568.000,0.300,70.000,0.500,18.000,1.000,0,5.000,0
"05/09/08","19:05:53",3006.000,"cc",28305.076,6,0.100,2344.000,0.200,581.000,0.300,70.000,0.500,11.000,1.000,0,5.000,0
"05/09/08","19:05:59",2825.000,"cc",28306.766,6,0.100,2177.000,0.200,555.000,0.300,78.000,0.500,15.000,1.000,0,5.000,0
"05/09/08","19:06:05",2769.000,"cc",28260.816,6,0.100,2130.000,0.200,533.000,0.300,92.000,0.500,11.000,1.000,3.000,5.000,0
"05/09/08","19:06:11",2763.000,"cc",28389.014,6,0.100,2155.000,0.200,532.000,0.300,66.000,0.500,8.000,1.000,2.000,5.000,0
"05/09/08","19:06:17",3342.000,"cc",28380.512,6,0.100,2629.000,0.200,619.000,0.300,78.000,0.500,14.000,1.000,2.000,5.000,0
"05/09/08","19:06:23",3008.000,"cc",28291.963,6,0.100,2329.000,0.200,568.000,0.300,81.000,0.500,28.000,1.000,2.000,5.000,0
"05/09/08","19:06:29",3189.000,"cc",28315.502,6,0.100,2517.000,0.200,583.000,0.300,69.000,0.500,20.000,1.000,0,5.000,0
"05/09/08","19:06:35",2994.000,"cc",28346.881,6,0.100,2318.000,0.200,560.000,0.300,85.000,0.500,30.000,1.000,1.000,5.000,0
"05/09/08","19:06:41",2693.000,"cc",28224.281,6,0.100,2075.000,0.200,532.000,0.300,70.000,0.500,15.000,1.000,1.000,5.000,0
"05/09/08","19:06:47",2813.000,"cc",28276.156,6,0.100,2228.000,0.200,503.000,0.300,66.000,0.500,15.000,1.000,1.000,5.000,0
"05/09/08","19:06:53",2681.000,"cc",28266.971,6,0.100,2064.000,0.200,532.000,0.300,66.000,0.500,18.000,1.000,1.000,5.000,0
"05/09/08","19:06:59",2622.000,"cc",28298.285,6,0.100,2031.000,0.200,507.000,0.300,70.000,0.500,14.000,1.000,0,5.000,0
"05/09/08","19:07:05",2765.000,"cc",28331.688,6,0.100,2103.000,0.200,567.000,0.300,79.000,0.500,15.000,1.000,1.000,5.000,0
"05/09/08","19:07:11",2699.000,"cc",28355.039,6,0.100,2062.000,0.200,531.000,0.300,78.000,0.500,24.000,1.000,4.000,5.000,0
"05/09/08","19:07:17",2670.000,"cc",28327.856,6,0.100,2058.000,0.200,521.000,0.300,70.000,0.500,21.000,1.000,0,5.000,0
"05/09/08","19:07:23",2660.000,"cc",28407.631,6,0.100,2058.000,0.200,508.000,0.300,72.000,0.500,18.000,1.000,4.000,5.000,0
"05/09/08","19:07:29",2769.000,"cc",28351.727,6,0.100,2144.000,0.200,544.000,0.300,69.000,0.500,12.000,1.000,0,5.000,0
"05/09/08","19:07:35",2747.000,"cc",28297.777,6,0.100,2132.000,0.200,531.000,0.300,69.000,0.500,15.000,1.000,0,5.000,0
"05/09/08","19:07:41",3001.000,"cc",28287.645,6,0.100,2316.000,0.200,583.000,0.300,74.000,0.500,28.000,1.000,0,5.000,0
"05/09/08","19:07:47",2963.000,"cc",28279.322,6,0.100,2274.000,0.200,582.000,0.300,81.000,0.500,26.000,1.000,0,5.000,0
"05/09/08","19:07:53",2888.000,"cc",28320.447,6,0.100,2214.000,0.200,565.000,0.300,95.000,0.500,11.000,1.000,3.000,5.000,0
"05/09/08","19:07:59",2863.000,"cc",28277.299,6,0.100,2169.000,0.200,562.000,0.300,107.000,0.500,22.000,1.000,3.000,5.000,0
"05/09/08","19:08:05",2669.000,"cc",28249.635,6,0.100,2038.000,0.200,537.000,0.300,77.000,0.500,16.000,1.000,1.000,5.000,0
"05/09/08","19:08:11",2645.000,"cc",28292.197,6,0.100,2053.000,0.200,511.000,0.300,70.000,0.500,10.000,1.000,1.000,5.000,0
"05/09/08","19:08:17",2662.000,"cc",28314.379,6,0.100,2019.000,0.200,555.000,0.300,70.000,0.500,16.000,1.000,2.000,5.000,0
"05/09/08","19:08:23",2718.000,"cc",28288.912,6,0.100,2069.000,0.200,546.000,0.300,87.000,0.500,12.000,1.000,4.000,5.000,0
"05/09/08","19:08:29",2700.000,"cc",28324.539,6,0.100,2035.000,0.200,568.000,0.300,74.000,0.500,22.000,1.000,1.000,5.000,0
"05/09/08","19:08:35",2742.000,"cc",28322.471,6,0.100,2110.000,0.200,562.000,0.300,54.000,0.500,14.000,1.000,2.000,5.000,0
"05/09/08","19:08:41",2591.000,"cc",28282.029,6,0.100,1991.000,0.200,503.000,0.300,76.000,0.500,20.000,1.000,1.000,5.000,0
"05/09/08","19:08:47",2761.000,"cc",28416.664,6,0.100,2123.000,0.200,544.000,0.300,83.000,0.500,10.000,1.000,1.000,5.000,0
"05/09/08","19:08:53",2675.000,"cc",28328.387,6,0.100,2002.000,0.200,572.000,0.300,80.000,0.500,20.000,1.000,1.000,5.000,0
"05/09/08","19:08:59",2724.000,"cc",28301.426,6,0.100,2025.000,0.200,581.000,0.300,97.000,0.500,19.000,1.000,2.000,5.000,0
"05/09/08","19:09:05",2734.000,"cc",28298.477,6,0.100,2102.000,0.200,546.000,0.300,67.000,0.500,17.000,1.000,2.000,5.000,0
"05/09/08","19:09:11",2580.000,"cc",28360.379,6,0.100,1985.000,0.200,526.000,0.300,53.000,0.500,13.000,1.000,3.000,5.000,0
"05/09/08","19:09:17",2734.000,"cc",28299.713,6,0.100,2098.000,0.200,541.000,0.300,74.000,0.500,20.000,1.000,1.000,5.000,0
"05/09/08","19:09:23",2650.000,"cc",28320.652,6,0.100,1980.000,0.200,570.000,0.300,77.000,0.500,21.000,1.000,2.000,5.000,0
"05/09/08","19:09:29",2724.000,"cc",28284.818,6,0.100,2082.000,0.200,540.000,0.300,79.000,0.500,18.000,1.000,5.000,5.000,0
"05/09/08","19:09:35",2760.000,"cc",28287.719,6,0.100,2091.000,0.200,581.000,0.300,78.000,0.500,7.000,1.000,3.000,5.000,0
"05/09/08","19:09:41",2755.000,"cc",28360.508,6,0.100,2050.000,0.200,592.000,0.300,87.000,0.500,23.000,1.000,3.000,5.000,0
"05/09/08","19:09:47",2656.000,"cc",28379.184,6,0.100,2022.000,0.200,542.000,0.300,68.000,0.500,24.000,1.000,0,5.000,0
"05/09/08","19:09:53",2700.000,"cc",28352.768,6,0.100,2008.000,0.200,605.000,0.300,68.000,0.500,18.000,1.000,1.000,5.000,0
"05/09/08","19:09:59",2876.000,"cc",28319.815,6,0.100,2214.000,0.200,573.000,0.300,71.000,0.500,17.000,1.000,1.000,5.000,0
"05/09/08","19:10:05",2700.000,"cc",28265.416,6,0.100,2056.000,0.200,555.000,0.300,74.000,0.500,13.000,1.000,2.000,5.000,0
"05/09/08","19:10:11",2764.000,"cc",28364.346,6,0.100,2119.000,0.200,561.000,0.300,72.000,0.500,11.000,1.000,1.000,5.000,0
"05/09/08","19:10:17",2751.000,"cc",28358.377,6,0.100,2067.000,0.200,588.000,0.300,77.000,0.500,18.000,1.000,1.000,5.000,0
"05/09/08","19:10:23",2817.000,"cc",28292.869,6,0.100,2104.000,0.200,612.000,0.300,84.000,0.500,15.000,1.000,2.000,5.000,0
"05/09/08","19:10:29",2814.000,"cc",28304.824,6,0.100,2131.000,0.200,576.000,0.300,84.000,0.500,21.000,1.000,2.000,5.000,0
"05/09/08","19:10:35",2756.000,"cc",28288.346,6,0.100,2065.000,0.200,585.000,0.300,89.000,0.500,15.000,1.000,2.000,5.000,0
"05/09/08","19:10:41",2770.000,"cc",28371.908,6,0.100,2110.000,0.200,574.000,0.300,73.000,0.500,12.000,1.000,1.000,5.000,0
"05/09/08","19:10:47",2709.000,"cc",28308.961,6,0.100,2037.000,0.200,566.000,0.300,84.000,0.500,22.000,1.000,0,5.000,0
"05/09/08","19:10:53",2772.000,"cc",28321.432,6,0.100,2085.000,0.200,593.000,0.300,78.000,0.500,15.000,1.000,1.000,5.000,0
"05/09/08","19:10:59",2730.000,"cc",28259.559,6,0.100,2074.000,0.200,575.000,0.300,64.000,0.500,15.000,1.000,2.000,5.000,0
"05/09/08","19:11:05",2842.000,"cc",28294.789,6,0.100,2165.000,0.200,591.000,0.300,69.000,0.500,15.000,1.000,2.000,5.000,0
"05/09/08","19:11:11",2877.000,"cc",28298.408,6,0.100,2175.000,0.200,590.000,0.300,93.000,0.500,19.000,1.000,0,5.000,0
"05/09/08","19:11:17",2836.000,"cc",28350.994,6,0.100,2127.000,0.200,615.000,0.300,75.000,0.500,19.000,1.000,0,5.000,0
"05/09/08","19:11:23",2658.000,"cc",28332.957,6,0.100,2021.000,0.200,555.000,0.300,60.000,0.500,20.000,1.000,2.000,5.000,0
"05/09/08","19:11:29",2829.000,"cc",28286.563,6,0.100,2116.000,0.200,608.000,0.300,83.000,0.500,21.000,1.000,1.000,5.000,0
"05/09/08","19:11:35",2652.000,"cc",28343.777,6,0.100,1984.000,0.200,571.000,0.300,78.000,0.500,14.000,1.000,5.000,5.000,0
"05/09/08","19:11:41",2845.000,"cc",28306.703,6,0.100,2127.000,0.200,619.000,0.300,79.000,0.500,19.000,1.000,1.000,5.000,0
"05/09/08","19:11:47",2723.000,"cc",28317.008,6,0.100,2050.000,0.200,588.000,0.300,68.000,0.500,15.000,1.000,2.000,5.000,0
"05/09/08","19:11:53",2784.000,"cc",28337.773,6,0.100,2141.000,0.200,554.000,0.300,68.000,0.500,20.000,1.000,1.000,5.000,0
"05/09/08","19:11:59",2816.000,"cc",28363.672,6,0.100,2118.000,0.200,597.000,0.300,87.000,0.500,13.000,1.000,1.000,5.000,0
"05/09/08","19:12:05",2748.000,"cc",28347.828,6,0.100,2068.000,0.200,587.000,0.300,79.000,0.500,12.000,1.000,2.000,5.000,0
"05/09/08","19:12:11",2764.000,"cc",28269.168,6,0.100,2126.000,0.200,543.000,0.300,78.000,0.500,13.000,1.000,4.000,5.000,0
"05/09/08","19:12:17",2773.000,"cc",28313.549,6,0.100,2065.000,0.200,611.000,0.300,75.000,0.500,19.000,1.000,3.000,5.000,0
"05/09/08","19:12:23",2796.000,"cc",28301.289,6,0.100,2123.000,0.200,586.000,0.300,70.000,0.500,16.000,1.000,1.000,5.000,0
"05/09/08","19:12:29",2818.000,"cc",28350.565,6,0.100,2147.000,0.200,595.000,0.300,60.000,0.500,16.000,1.000,0,5.000,0
"05/09/08","19:12:35",2833.000,"cc",28328.676,6,0.100,2143.000,0.200,595.000,0.300,78.000,0.500,16.000,1.000,1.000,5.000,0
"05/09/08","19:12:41",2915.000,"cc",28302.797,6,0.100,2196.000,0.200,628.000,0.300,73.000,0.500,16.000,1.000,2.000,5.000,0
"05/09/08","19:12:47",2647.000,"cc",28317.012,6,0.100,2058.000,0.200,510.000,0.300,63.000,0.500,14.000,1.000,2.000,5.000,0
"05/09/08","19:12:53",2792.000,"cc",28302.846,6,0.100,2125.000,0.200,571.000,0.300,83.000,0.500,11.000,1.000,2.000,5.000,0
"05/09/08","19:12:59",2709.000,"cc",28323.549,6,0.100,2046.000,0.200,559.000,0.300,84.000,0.500,20.000,1.000,0,5.000,0
"05/09/08","19:13:05",2815.000,"cc",28327.363,6,0.100,2135.000,0.200,607.000,0.300,56.000,0.500,15.000,1.000,2.000,5.000,0
"05/09/08","19:13:11",2694.000,"cc",28289.078,6,0.100,2035.000,0.200,560.000,0.300,80.000,0.500,15.000,1.000,4.000,5.000,0
"05/09/08","19:13:17",3030.000,"cc",28243.365,6,0.100,2308.000,0.200,636.000,0.300,68.000,0.500,17.000,1.000,1.000,5.000,0
"05/09/08","19:13:23",2782.000,"cc",28361.473,6,0.100,2095.000,0.200,613.000,0.300,60.000,0.500,13.000,1.000,1.000,5.000,0
"05/09/08","19:13:29",2975.000,"cc",28351.895,6,0.100,2308.000,0.200,569.000,0.300,71.000,0.500,24.000,1.000,3.000,5.000,0
"05/09/08","19:13:35",2775.000,"cc",28297.106,6,0.100,2067.000,0.200,604.000,0.300,87.000,0.500,15.000,1.000,2.000,5.000,0
"05/09/08","19:13:41",2951.000,"cc",28250.348,6,0.100,2246.000,0.200,601.000,0.300,88.000,0.500,13.000,1.000,3.000,5.000,0
"05/09/08","19:13:47",2995.000,"cc",28323.809,6,0.100,2296.000,0.200,586.000,0.300,85.000,0.500,27.000,1.000,1.000,5.000,0
"05/09/08","19:13:53",2754.000,"cc",28361.191,6,0.100,2054.000,0.200,601.000,0.300,83.000,0.500,14.000,1.000,2.000,5.000,0
"05/09/08","19:13:59",2837.000,"cc",28330.545,6,0.100,2110.000,0.200,630.000,0.300,71.000,0.500,24.000,1.000,2.000,5.000,0
"05/09/08","19:14:05",3275.000,"cc",28308.953,6,0.100,2498.000,0.200,683.000,0.300,78.000,0.500,15.000,1.000,1.000,5.000,0
"05/09/08","19:14:11",3073.000,"cc",28323.164,6,0.100,2381.000,0.200,596.000,0.300,75.000,0.500,20.000,1.000,1.000,5.000,0
"05/09/08","19:14:17",3407.000,"cc",28298.842,6,0.100,2617.000,0.200,673.000,0.300,101.000,0.500,14.000,1.000,2.000,5.000,0
"05/09/08","19:14:23",3736.000,"cc",28303.885,6,0.100,2846.000,0.200,770.000,0.300,102.000,0.500,17.000,1.000,1.000,5.000,0
"05/09/08","19:14:29",3168.000,"cc",28372.373,6,0.100,2446.000,0.200,624.000,0.300,82.000,0.500,12.000,1.000,4.000,5.000,0
"05/09/08","19:14:35",3175.000,"cc",28385.229,6,0.100,2423.000,0.200,649.000,0.300,83.000,0.500,17.000,1.000,3.000,5.000,0
"05/09/08","19:14:41",3364.000,"cc",28310.723,6,0.100,2597.000,0.200,675.000,0.300,65.000,0.500,23.000,1.000,4.000,5.000,0
"05/09/08","19:14:47",3507.000,"cc",28287.897,6,0.100,2720.000,0.200,677.000,0.300,86.000,0.500,20.000,1.000,4.000,5.000,0
"05/09/08","19:14:53",3379.000,"cc",28278.949,6,0.100,2580.000,0.200,695.000,0.300,87.000,0.500,15.000,1.000,2.000,5.000,0
"05/09/08","19:14:59",3397.000,"cc",28326.393,6,0.100,2646.000,0.200,649.000,0.300,84.000,0.500,16.000,1.000,2.000,5.000,0
"05/09/08","19:15:05",3435.000,"cc",28278.691,6,0.100,2677.000,0.200,644.000,0.300,90.000,0.500,22.000,1.000,2.000,5.000,0
"05/09/08","19:15:11",3168.000,"cc",28368.563,6,0.100,2406.000,0.200,660.000,0.300,82.000,0.500,19.000,1.000,1.000,5.000,0
"05/09/08","19:15:17",3039.000,"cc",28306.977,6,0.100,2307.000,0.200,627.000,0.300,86.000,0.500,15.000,1.000,4.000,5.000,0
"05/09/08","19:15:23",3185.000,"cc",28284.059,6,0.100,2435.000,0.200,636.000,0.300,96.000,0.500,15.000,1.000,3.000,5.000,0
"05/09/08","19:15:29",3057.000,"cc",28301.240,6,0.100,2326.000,0.200,612.000,0.300,98.000,0.500,19.000,1.000,2.000,5.000,0
"05/09/08","19:15:35",2969.000,"cc",28278.852,6,0.100,2256.000,0.200,632.000,0.300,60.000,0.500,16.000,1.000,5.000,5.000,0
"05/09/08","19:15:41",2955.000,"cc",28385.180,6,0.100,2245.000,0.200,607.000,0.300,80.000,0.500,20.000,1.000,3.000,5.000,0
"05/09/08","19:15:47",2843.000,"cc",28263.506,6,0.100,2187.000,0.200,560.000,0.300,75.000,0.500,20.000,1.000,1.000,5.000,0
"05/09/08","19:15:53",3206.000,"cc",28375.809,6,0.100,2483.000,0.200,618.000,0.300,88.000,0.500,16.000,1.000,1.000,5.000,0
"05/09/08","19:15:59",3121.000,"cc",28342.311,6,0.100,2380.000,0.200,649.000,0.300,76.000,0.500,13.000,1.000,3.000,5.000,0
"05/09/08","19:16:05",3240.000,"cc",28313.594,6,0.100,2481.000,0.200,670.000,0.300,74.000,0.500,15.000,1.000,0,5.000,0
"05/09/08","19:16:11",3547.000,"cc",28320.164,6,0.100,2775.000,0.200,672.000,0.300,88.000,0.500,9.000,1.000,3.000,5.000,0
"05/09/08","19:16:17",3524.000,"cc",28325.525,6,0.100,2734.000,0.200,684.000,0.300,85.000,0.500,18.000,1.000,3.000,5.000,0
"05/09/08","19:16:23",3375.000,"cc",28326.484,6,0.100,2586.000,0.200,671.000,0.300,98.000,0.500,19.000,1.000,1.000,5.000,0
"05/09/08","19:16:29",3374.000,"cc",28388.240,6,0.100,2610.000,0.200,653.000,0.300,89.000,0.500,21.000,1.000,1.000,5.000,0
"05/09/08","19:16:35",3132.000,"cc",28254.256,6,0.100,2423.000,0.200,618.000,0.300,74.000,0.500,15.000,1.000,2.000,5.000,0
"05/09/08","19:16:41",2905.000,"cc",28277.680,6,0.100,2198.000,0.200,615.000,0.300,69.000,0.500,19.000,1.000,4.000,5.000,0
"05/09/08","19:16:47",2867.000,"cc",28312.891,6,0.100,2153.000,0.200,603.000,0.300,92.000,0.500,19.000,1.000,0,5.000,0
"05/09/08","19:16:53",2810.000,"cc",28293.037,6,0.100,2108.000,0.200,599.000,0.300,83.000,0.500,18.000,1.000,2.000,5.000,0
"05/09/08","19:16:59",2843.000,"cc",28345.836,6,0.100,2212.000,0.200,539.000,0.300,72.000,0.500,16.000,1.000,4.000,5.000,0
"05/09/08","19:17:05",2912.000,"cc",28296.881,6,0.100,2211.000,0.200,619.000,0.300,64.000,0.500,16.000,1.000,2.000,5.000,0
"05/09/08","19:17:11",2871.000,"cc",28282.293,6,0.100,2165.000,0.200,602.000,0.300,83.000,0.500,16.000,1.000,5.000,5.000,0
"05/09/08","19:17:17",2827.000,"cc",28316.889,6,0.100,2147.000,0.200,573.000,0.300,87.000,0.500,19.000,1.000,1.000,5.000,0
"05/09/08","19:17:23",2765.000,"cc",28377.035,6,0.100,2070.000,0.200,612.000,0.300,69.000,0.500,14.000,1.000,0,5.000,0
"05/09/08","19:17:29",2767.000,"cc",28356.787,6,0.100,2090.000,0.200,581.000,0.300,77.000,0.500,16.000,1.000,3.000,5.000,0
"05/09/08","19:17:35",2920.000,"cc",28337.236,6,0.100,2186.000,0.200,629.000,0.300,83.000,0.500,19.000,1.000,3.000,5.000,0
"05/09/08","19:17:41",2943.000,"cc",28340.508,6,0.100,2261.000,0.200,588.000,0.300,62.000,0.500,29.000,1.000,3.000,5.000,0
"05/09/08","19:17:47",2921.000,"cc",28284.516,6,0.100,2188.000,0.200,618.000,0.300,90.000,0.500,25.000,1.000,0,5.000,0
"05/09/08","19:17:53",2846.000,"cc",28354.020,6,0.100,2193.000,0.200,571.000,0.300,66.000,0.500,14.000,1.000,2.000,5.000,0
"05/09/08","19:17:59",2822.000,"cc",28327.914,6,0.100,2151.000,0.200,586.000,0.300,69.000,0.500,15.000,1.000,1.000,5.000,0
"05/09/08","19:18:05",2736.000,"cc",28256.326,6,0.100,2094.000,0.200,555.000,0.300,74.000,0.500,9.000,1.000,4.000,5.000,0
"05/09/08","19:18:11",2958.000,"cc",28327.525,6,0.100,2259.000,0.200,586.000,0.300,97.000,0.500,13.000,1.000,3.000,5.000,0
"05/09/08","19:18:17",2981.000,"cc",28307.275,6,0.100,2251.000,0.200,636.000,0.300,75.000,0.500,18.000,1.000,1.000,5.000,0
"05/09/08","19:18:23",2925.000,"cc",28266.385,6,0.100,2200.000,0.200,633.000,0.300,75.000,0.500,15.000,1.000,2.000,5.000,0